User: anonymous   Login
Location: Limoges
(45.8354°N, 1.2645°E)
Time: 12:54:38
(UTC+01:00)
Language:

Tiros 1 - Orbit

View from above orbital plane
View from above orbital plane
View from above satellite
View from above satellite

Ground track
Ground track

The orbit data is extracted from the following two-line orbital elements,

1 00029U 60002B   24052.51084476  .00001220  00000-0  20453-3 0  9999
2 00029  48.3790  81.1165 0023784 228.6047 131.2821 14.76019105416923
Epoch (UTC): 21 February 2024 12:15:36
Eccentricity: 0.0023784
inclination: 48.3790°
perigee height: 625 km
apogee height: 658 km
right ascension of ascending node: 81.1165°
argument of perigee: 228.6047°
revolutions per day: 14.76019105
mean anomaly at epoch: 131.2821°
orbit number at epoch: 41692

The dashed part of the orbit path shows where the satellite is in the earth's shadow,  

DLR